EHI
0 0 0 0 0 0 0 0 0 0 0 0 0 0 0 0 0 0 0 0 0 0 0 0 0 0 1 1 2 2 1 0 0 0 0 0 0 0 0 0 0 0 0 0
0 0 0 0 0 0 0 0 0 0 0 0 0 0 0 0 0 0 0 0 0 0 0 0 0 1 2 2 3 3 2 1 0 0 0 0 0 0 0 0 0 0 0 0
0 0 0 0 0 0 0 0 0 0 0 0 0 0 0 0 0 0 0 0 0 0 0 0 0 1 2 3 3 3 2 1 0 1 1 1 0 0 0 0 0 0 0 0
0 0 0 0 0 0 0 0 0 0 0 0 0 0 0 0 0 0 0 0 0 0 0 0 0 0 1 1 2 2 1 0 1 2 3 2 1 0 0 0 0 0 0 1
0 0 0 0 0 0 0 0 0 0 0 0 0 0 0 0 0 0 0 0 0 0 0 0 0 0 0 1 2 2 1 1 2 3 4 2 1 0 0 0 0 0 1 2
0 0 0 0 0 0 0 0 0 0 0 0 0 0 0 0 0 0 0 0 0 0 0 0 0 0 1 2 3 2 1 2 3 4 3 2 1 0 0 0 0 0 2 3
0 0 0 0 0 0 0 0 0 0 0 0 0 0 0 0 0 0 0 0 0 0 0 0 0 0 1 2 2 2 2 3 4 4 3 1 0 0 0 0 0 0 1 2
0 0 0 0 0 0 0 0 0 0 0 0 0 0 0 0 0 0 0 0 0 0 0 0 0 0 1 1 1 1 3 5 4 3 1 0 0 0 0 0 0 1 1 2
0 0 0 0 0 0 0 0 0 0 0 0 0 0 0 0 0 0 0 0 0 0 0 0 0 0 1 1 0 1 4 4 2 1 0 0 0 0 0 0 0 1 1 1
0 0 0 0 0 0 0 0 0 0 0 0 0 0 0 0 0 0 0 0 0 0 0 0 0 0 1 1 0 1 2 2 0 0 0 0 0 0 0 0 0 1 1 0
0 0 0 0 0 0 0 0 0 0 0 0 0 0 0 0 0 0 0 0 0 0 0 0 0 0 0 0 0 0 0 0 0 0 0 0 0 0 0 0 0 0 0 0
0 0 0 0 0 0 0 0 0 0 0 0 0 0 0 0 0 0 0 0 0 0 0 0 0 0 0 0 0 0 0 0 0 0 0 0 0 0 0 0 0 0 0 0
0 0 0 0 0 0 0 0 0 0 0 0 0 0 0 0 0 0 0 0 0 0 0 0 0 0 0 0 0 0 0 0 0 0 0 0 0 0 0 0 0 0 0 0
0 0 0 0 0 0 0 0 0 0 0 0 0 0 0 0 0 0 0 0 0 0 0 0 0 0 0 0 0 0 0 0 0 0 0 0 0 0 0 0 0 0 0 0
0 0 0 0 0 0 0 0 0 0 0 0 0 0 0 0 0 0 0 0 0 0 0 0 0 0 0 0 0 0 0 0 0 0 0 0 0 0 0 0 0 0 0 0
0 0 0 0 0 0 0 0 0 0 0 0 0 0 0 0 0 0 0 0 0 0 0 0 0 0 0 0 0 0 0 0 0 0 0 0 0 0 0 0 0 0 0 0
0 0 0 0 0 0 0 0 0 0 0 0 0 0 0 0 0 0 0 0 0 0 0 0 0 0 0 0 0 0 0 1 1 0 0 0 0 0 0 0 0 0 0 0
0 0 0 0 0 0 0 0 0 0 0 0 0 0 0 0 0 0 0 0 0 0 0 0 0 0 0 0 1 2 2 2 2 1 0 0 0 0 0 0 0 0 0 0
0 0 0 0 0 0 0 0 0 0 0 0 0 0 0 0 0 0 0 0 0 0 0 0 0 0 1 1 2 3 3 3 2 1 0 0 0 0 0 0 0 0 0 0
0 0 0 0 0 0 0 0 0 0 0 0 0 0 0 0 0 0 0 0 0 0 0 0 0 1 2 3 3 3 3 2 1 0 0 0 0 0 0 0 0 0 0 0
0 0 0 0 0 0 0 0 0 0 0 0 0 0 0 0 0 0 0 0 0 0 0 0 0 1 2 3 3 3 2 1 0 0 0 0 0 0 0 0 0 0 0 0
0 0 0 0 0 0 0 0 0 0 0 0 0 0 0 0 0 0 0 0 0 0 0 0 0 0 1 3 3 3 1 0 0 0 0 0 0 0 0 0 0 0 0 0
0 0 0 0 0 0 0 0 0 0 0 0 0 0 0 0 0 0 0 0 0 0 0 0 0 0 1 2 3 2 1 0 0 0 0 0 0 0 0 0 0 0 0 0
0 0 0 0 0 0 0 0 0 0 0 0 0 0 0 0 0 0 0 0 0 0 0 0 0 0 0 1 2 1 0 0 0 0 0 0 0 0 0 0 0 0 0 0
0 0 0 0 0 0 0 0 0 0 0 0 0 0 0 0 0 0 0 0 0 0 0 0 0 0 0 0 0 0 0 0 0 0 0 0 0 0 0 0 0 0 0 0
0 0 0 0 0 0 0 0 0 0 0 0 0 0 0 0 0 0 0 0 0 0 0 0 0 0 0 0 0 0 0 0 0 0 0 0 0 0 0 0 0 0 0 0
Wind_Speed
0 3 2 6 6 6 4 3 4 5 4 4 5 5 5 5 5 6 5 5 6 7 6 6 6 6 6 6 6 6 6 5 4 3 3 3 2 1 1 1 2 3 3 4
3 3 8 6 4 4 4 4 3 3 2 3 4 4 5 5 7 8 9 8 8 6 4 5 5 5 6 6 6 6 6 5 5 4 4 3 3 2 2 1 2 2 3 3
5 7 5 4 3 3 3 4 4 3 1 1 2 3 3 4 4 4 6 7 7 9 9 7 6 6 6 6 7 7 6 6 5 5 3 3 3 2 2 1 1 1 3 3
4 6 3 3 4 4 5 6 5 3 1 2 2 3 6 5 3 5 6 6 6 7 7 8 7 6 7 7 7 7 7 6 5 5 6 6 4 3 3 2 2 2 2 3
4 2 3 3 5 5 6 5 3 2 2 1 1 2 7 2 4 6 7 7 7 7 8 8 8 8 7 6 5 5 6 6 5 5 6 6 4 3 2 2 3 2 1 2
4 3 3 4 3 3 2 4 4 4 3 3 5 4 6 4 8 7 7 7 7 7 8 7 7 6 6 5 4 4 5 5 4 5 5 6 7 5 4 3 3 2 1 1
4 4 2 1 1 2 4 5 3 4 2 6 3 3 7 6 6 8 9 9 8 8 8 7 6 6 6 6 6 5 6 5 5 5 5 6 7 7 7 5 4 3 2 2
1 4 3 2 4 3 2 7 6 4 4 4 2 4 6 3 2 3 5 6 6 7 7 8 9 8 8 7 7 6 6 5 6 6 5 5 6 5 4 5 4 4 3 3
3 5 4 3 2 5 3 3 6 5 2 2 4 3 5 3 2 2 3 4 5 6 7 8 7 7 7 7 7 8 7 5 5 6 5 4 4 4 4 4 4 3 3 3
4 3 4 2 2 0 4 5 5 3 2 3 3 3 4 4 2 2 4 5 5 4 5 6 6 7 6 6 6 6 7 6 5 5 5 4 4 4 4 4 4 4 4 3
3 3 3 1 2 3 1 2 3 3 4 4 3 6 5 7 5 4 5 6 6 6 6 6 5 5 5 5 5 5 5 4 4 4 4 4 4 3 3 3 4 4 4 4
2 4 2 4 4 3 4 4 5 3 3 3 3 7 4 4 3 4 4 4 4 5 5 5 4 4 4 4 4 4 4 4 4 4 4 5 5 4 4 3 4 4 4 4
2 5 2 4 5 3 1 2 3 3 3 3 3 7 3 1 0 1 2 3 3 4 4 4 4 4 4 5 5 4 4 4 3 4 4 4 4 4 4 4 4 4 4 4
4 4 5 7 6 3 3 3 2 3 3 3 5 6 5 3 2 2 2 3 3 4 4 5 4 4 4 4 5 5 5 4 4 4 4 4 4 4 4 3 3 3 4 4
4 2 3 5 4 3 4 5 4 5 7 6 6 7 8 6 5 4 3 3 3 3 3 5 5 4 4 3 4 5 5 4 4 4 4 4 4 3 3 3 3 3 3 3
3 2 1 3 3 4 5 6 6 6 5 6 5 8 6 3 2 1 2 3 4 4 4 4 4 4 4 5 5 5 5 5 5 5 5 4 3 3 3 4 3 3 3 3
2 3 2 3 4 3 6 7 7 5 4 6 8 8 3 2 3 3 3 3 3 4 4 4 5 5 5 6 6 6 5 4 5 5 5 4 4 3 3 4 3 3 3 3
5 4 3 2 0 6 7 3 4 4 3 2 2 2 3 4 3 2 3 4 2 2 2 3 4 4 4 4 4 4 4 5 5 5 4 4 4 4 3 3 3 3 3 3
6 6 3 2 3 5 6 3 2 2 2 2 2 1 1 1 3 2 1 2 3 3 3 3 4 4 4 4 4 4 4 4 4 4 4 4 5 4 4 4 4 3 3 2
3 4 4 3 3 6 5 5 4 2 2 3 2 2 2 3 2 3 2 0 0 0 0 0 0 1 3 4 4 4 4 5 5 5 5 5 5 5 5 4 3 2 3 3
1 2 3 3 4 6 5 5 2 2 5 3 2 3 3 2 4 4 1 1 0 0 0 0 1 1 3 3 4 5 4 5 6 5 4 4 4 5 5 4 3 2 2 3
4 3 3 4 4 7 4 2 1 4 2 0 0 1 2 2 1 1 0 0 0 0 1 0 1 1 1 2 4 5 5 5 3 3 4 4 4 4 3 4 3 3 3 3
3 5 4 5 5 4 2 1 2 1 1 1 1 0 1 1 1 1 0 1 1 1 1 1 1 1 1 1 3 5 4 4 4 4 4 3 3 3 4 4 4 3 3 3
3 0 2 2 4 4 4 3 3 2 1 1 1 1 1 1 2 1 1 1 2 2 2 1 1 1 2 1 2 3 3 4 4 4 4 3 3 3 3 3 3 4 4 3
4 1 1 4 5 4 4 3 3 3 1 0 1 1 1 2 3 3 2 2 2 2 2 1 2 2 3 2 1 2 3 4 4 4 3 3 3 3 3 2 3 4 4 5
4 4 4 6 6 4 6 5 3 3 3 3 2 2 2 2 3 3 3 2 2 2 2 1 2 2 2 2 2 2 3 4 4 3 3 3 3 3 3 3 1 1 2 3
Wind_Direction
306 90 218 227 210 206 204 213 242 247 228 163 183 210 231 215 180 189 197 193 187 194 194 173 163 157 152 153 152 151 147 158 148 138 137 135 137 133 113 118 118 119 120 118
39 242 235 227 235 224 228 228 250 273 237 160 180 225 234 215 199 194 193 196 196 189 177 170 164 157 158 166 164 159 162 161 161 163 160 156 149 145 137 119 109 123 123 123
200 240 232 214 248 245 242 216 222 235 341 61 106 303 269 251 219 209 195 192 191 183 180 179 175 173 166 170 173 171 170 166 167 158 132 108 81 66 64 78 99 124 129 123
233 249 239 228 237 215 244 233 213 205 116 260 163 256 272 243 236 214 206 197 192 186 177 176 175 176 178 186 181 170 165 165 166 157 147 146 148 160 184 172 157 146 135 132
250 229 202 230 240 210 225 231 194 195 175 280 249 190 273 244 236 229 214 204 192 183 174 176 177 177 178 179 175 170 164 165 167 166 163 159 160 173 159 140 138 139 144 144
246 248 200 217 245 213 176 55 35 47 75 271 235 186 265 226 217 218 213 207 191 181 180 178 178 172 173 169 167 163 162 166 170 167 167 166 165 162 150 154 158 162 160 149
310 299 262 188 334 344 84 83 30 358 359 257 247 193 245 238 215 202 199 201 192 180 177 174 172 173 177 175 175 170 168 171 173 173 174 174 171 169 170 171 173 171 171 172
234 278 260 208 183 199 184 140 158 201 226 276 313 227 256 270 216 183 177 180 179 177 175 180 183 182 183 184 176 170 176 180 178 175 174 174 171 170 174 176 174 180 185 187
186 253 271 244 206 160 154 174 173 154 227 252 276 284 313 353 74 132 151 155 179 184 181 183 185 184 185 185 181 175 171 178 181 177 167 163 169 168 174 178 169 174 180 174
166 239 282 285 41 34 161 155 101 132 192 252 272 252 238 251 244 204 179 182 195 193 186 184 184 187 189 187 182 174 168 177 179 173 171 163 164 169 168 163 170 179 181 171
150 171 290 346 186 212 140 132 123 142 169 175 236 263 229 207 207 193 196 190 183 187 187 186 188 191 187 180 173 173 170 164 169 169 167 157 163 158 156 172 182 182 176 168
137 132 226 259 263 209 177 178 146 160 235 191 198 261 278 198 197 174 182 189 187 186 182 181 176 171 169 176 175 177 173 168 179 177 169 164 161 154 158 176 186 177 173 175
119 111 79 335 332 1 107 184 158 149 150 181 197 259 319 15 31 175 174 182 183 175 165 160 154 164 171 174 175 176 177 180 180 165 156 153 151 158 172 185 182 176 172 170
105 123 168 201 221 228 255 257 202 138 176 218 222 245 283 286 257 255 216 190 176 178 174 163 163 171 181 179 180 178 182 178 166 157 158 161 169 169 175 182 176 176 170 166
97 151 215 232 240 231 240 246 235 211 205 205 230 233 247 242 225 220 208 195 180 174 173 174 178 179 183 183 186 185 186 179 166 161 168 181 183 167 158 164 168 165 158 159
90 154 263 273 261 270 260 258 246 240 225 224 237 255 255 243 210 216 194 172 183 181 179 182 181 180 186 190 194 191 190 182 163 166 179 178 164 161 166 169 164 162 160 155
157 149 160 260 286 314 264 243 230 232 230 208 226 241 230 196 186 184 182 165 179 187 184 188 192 195 196 198 193 190 192 177 170 175 177 170 163 168 179 170 162 171 173 156
169 151 158 206 220 240 249 250 213 212 253 245 235 229 195 201 195 184 175 168 173 175 182 207 205 202 200 194 190 185 172 168 172 176 174 171 167 173 174 160 169 176 170 166
176 158 154 161 213 267 287 295 248 199 279 293 203 189 136 100 67 11 333 164 176 191 200 217 209 196 192 191 187 172 168 167 170 180 183 181 174 171 168 175 186 179 162 167
116 132 143 162 199 233 252 292 300 130 262 294 186 167 158 91 100 259 286 291 190 358 250 254 255 178 181 191 171 163 175 176 185 192 190 183 176 170 173 183 180 173 169 174
80 107 166 193 227 256 271 298 9 170 243 264 183 163 153 178 204 226 239 309 186 338 313 58 67 188 199 184 162 166 182 200 203 189 175 176 177 177 175 171 162 159 160 157
186 173 190 178 212 250 306 11 137 227 272 129 141 170 163 184 196 183 148 299 163 14 344 71 100 282 235 173 165 173 194 207 189 174 173 178 177 174 161 160 167 161 155 158
205 192 185 195 218 262 298 240 241 206 205 213 185 258 177 156 169 198 226 253 233 222 228 244 189 222 247 191 175 189 203 185 166 165 179 185 179 175 168 169 172 168 168 169
287 230 176 245 269 296 319 329 342 322 261 240 184 185 146 236 231 208 221 251 249 242 240 242 188 195 229 223 200 204 197 176 166 172 182 181 177 179 178 177 175 176 183 183
259 288 236 258 275 312 318 313 311 319 324 346 316 264 226 231 245 229 234 247 246 248 245 207 191 207 228 222 221 208 184 164 169 181 184 180 176 171 174 183 192 194 201 195
242 221 218 241 244 242 269 278 276 284 287 278 276 297 290 259 249 240 242 244 237 231 237 214 208 217 233 214 231 227 195 166 163 176 185 184 176 171 168 170 195 249 207 202